| time (UTC) | temp C | wind direction | speed KPH | gust KPH | rain 1hr cm | rain 24hr cm | rain mn cm | humidity % | barometer mb |
| 20260509105519 | 20 | 45 | 8.0 | 19.3 | 0.00 | 0.00 | 0.00 | 56 | 1018.7 |
| 20260509104520 | 20 | 45 | 6.4 | 16.1 | 0.00 | 0.00 | 0.00 | 60 | 1018.7 |
| 20260509103520 | 19 | 68 | 8.0 | 14.5 | 0.00 | 0.00 | 0.00 | 62 | 1018.8 |
| 20260509102600 | 18 | 68 | 4.8 | 9.7 | 0.00 | 0.00 | 0.00 | 62 | 1019.0 |
| 20260509101519 | 18 | 68 | 6.4 | 11.3 | 0.00 | 0.00 | 0.00 | 62 | 1019.0 |
| 20260509100546 | 18 | 45 | 8.0 | 12.9 | 0.00 | 0.00 | 0.00 | 64 | 1018.9 |
| 20260509095541 | 18 | 135 | 6.4 | 11.3 | 0.00 | 0.00 | 0.00 | 61 | 1018.9 |
| 20260509094543 | 18 | 45 | 4.8 | 12.9 | 0.00 | 0.00 | 0.00 | 62 | 1019.1 |
| 20260509093543 | 17 | 113 | 4.8 | 12.9 | 0.00 | 0.00 | 0.00 | 63 | 1019.1 |
| 20260509092542 | 17 | 68 | 4.8 | 9.7 | 0.00 | 0.00 | 0.00 | 65 | 1018.8 |
| 20260509091519 | 16 | 68 | 4.8 | 9.7 | 0.00 | 0.00 | 0.00 | 67 | 1018.9 |
| 20260509090523 | 16 | 68 | 3.2 | 8.0 | 0.00 | 0.00 | 0.00 | 66 | 1018.9 |
| 20260509085520 | 15 | 68 | 4.8 | 11.3 | 0.00 | 0.00 | 0.00 | 68 | 1018.9 |
| 20260509084519 | 15 | 68 | 6.4 | 9.7 | 0.00 | 0.00 | 0.00 | 69 | 1019.0 |
| 20260509083625 | 15 | 68 | 3.2 | 9.7 | 0.00 | 0.00 | 0.00 | 69 | 1018.8 |
| 20260509082525 | 14 | 113 | 3.2 | 6.4 | 0.00 | 0.00 | 0.00 | 69 | 1018.9 |
| 20260509081520 | 14 | 90 | 4.8 | 9.7 | 0.00 | 0.00 | 0.00 | 69 | 1018.9 |
| 20260509080519 | 13 | 68 | 4.8 | 6.4 | 0.00 | 0.00 | 0.00 | 70 | 1018.9 |
| 20260509075522 | 13 | 68 | 4.8 | 8.0 | 0.00 | 0.00 | 0.00 | 72 | 1018.8 |
| 20260509074519 | 13 | 90 | 3.2 | 6.4 | 0.00 | 0.00 | 0.00 | 73 | 1018.7 |
| 20260509073519 | 12 | 90 | 1.6 | 4.8 | 0.00 | 0.00 | 0.00 | 74 | 1018.6 |
| 20260509072519 | 12 | 68 | 3.2 | 8.0 | 0.00 | 0.00 | 0.00 | 75 | 1018.8 |
| 20260509071519 | 12 | 68 | 3.2 | 6.4 | 0.00 | 0.00 | 0.00 | 76 | 1018.7 |
| 20260509070521 | 12 | 113 | 3.2 | 6.4 | 0.00 | 0.00 | 0.00 | 78 | 1018.8 |
| 20260509065519 | 11 | 68 | 1.6 | 3.2 | 0.00 | 0.00 | 0.00 | 80 | 1018.7 |
| 20260509064520 | 11 | 0.0 | 0.0 | 0.00 | 0.00 | 0.00 | 83 | 1018.7 | |
| 20260509063518 | 10 | 0.0 | 0.0 | 0.00 | 0.00 | 0.00 | 85 | 1018.4 | |
| 20260509062519 | 9 | 0.0 | 0.0 | 0.00 | 0.00 | 0.00 | 86 | 1018.5 | |
| 20260509061520 | 8 | 0.0 | 0.0 | 0.00 | 0.00 | 0.00 | 90 | 1018.3 | |
| 20260509060519 | 8 | 0.0 | 0.0 | 0.00 | 0.00 | 0.00 | 91 | 1018.3 | |
| 20260509055519 | 7 | 0.0 | 0.0 | 0.00 | 0.00 | 0.00 | 92 | 1018.2 | |
| 20260509054519 | 7 | 0.0 | 0.0 | 0.00 | 0.00 | 0.00 | 91 | 1018.1 | |
| 20260509053525 | 6 | 0.0 | 0.0 | 0.00 | 0.00 | 0.00 | 91 | 1018.4 | |
| 20260509052519 | 6 | 0.0 | 0.0 | 0.00 | 0.00 | 0.00 | 91 | 1018.3 | |
| 20260509051519 | 6 | 0.0 | 0.0 | 0.00 | 0.00 | 0.00 | 90 | 1018.2 | |
| 20260509050554 | 6 | 0.0 | 0.0 | 0.00 | 0.00 | 0.00 | 90 | 1018.0 | |
| 20260509045520 | 6 | 0.0 | 0.0 | 0.00 | 0.00 | 0.00 | 89 | 1017.9 | |
| 20260509044519 | 6 | 0.0 | 0.0 | 0.00 | 0.00 | 0.00 | 90 | 1017.8 | |
| 20260509043530 | 6 | 0.0 | 0.0 | 0.00 | 0.00 | 0.00 | 90 | 1017.9 | |
| 20260509042519 | 6 | 0.0 | 0.0 | 0.00 | 0.00 | 0.00 | 90 | 1017.9 | |
| 20260509041519 | 6 | 0.0 | 0.0 | 0.00 | 0.00 | 0.00 | 90 | 1017.9 | |
| 20260509040524 | 6 | 0.0 | 0.0 | 0.00 | 0.00 | 0.00 | 89 | 1018.1 | |
| 20260509035520 | 6 | 0.0 | 0.0 | 0.00 | 0.00 | 0.00 | 89 | 1018.0 | |
| 20260509034541 | 6 | 0.0 | 0.0 | 0.00 | 0.00 | 0.00 | 90 | 1018.0 | |
| 20260509033519 | 6 | 0.0 | 0.0 | 0.00 | 0.00 | 0.00 | 90 | 1018.1 | |
| 20260509032520 | 6 | 0.0 | 0.0 | 0.00 | 0.00 | 0.00 | 89 | 1018.0 | |
| 20260509031519 | 6 | 0.0 | 0.0 | 0.00 | 0.00 | 0.00 | 89 | 1018.3 | |
| 20260509030519 | 6 | 0.0 | 0.0 | 0.00 | 0.00 | 0.00 | 89 | 1018.3 | |
| 20260509025518 | 6 | 0.0 | 0.0 | 0.00 | 0.00 | 0.00 | 89 | 1018.3 | |
| 20260509024519 | 6 | 0.0 | 1.6 | 0.00 | 0.00 | 0.00 | 88 | 1018.2 | |
| 20260509023517 | 6 | 0.0 | 3.2 | 0.00 | 0.00 | 0.00 | 89 | 1018.2 | |
| 20260509022517 | 6 | 0.0 | 0.0 | 0.00 | 0.00 | 0.00 | 88 | 1018.2 | |
| 20260509021519 | 6 | 0.0 | 1.6 | 0.00 | 0.00 | 0.00 | 89 | 1018.1 | |
| 20260509020520 | 6 | 0.0 | 1.6 | 0.00 | 0.00 | 0.00 | 88 | 1017.6 | |
| 20260509015539 | 6 | 0.0 | 0.0 | 0.00 | 0.00 | 0.00 | 88 | 1017.7 | |
| 20260509014525 | 6 | 0.0 | 1.6 | 0.00 | 0.00 | 0.00 | 88 | 1017.8 | |
| 20260509013518 | 7 | 0.0 | 1.6 | 0.00 | 0.00 | 0.00 | 87 | 1018.0 | |
| 20260509012519 | 7 | 180 | 3.2 | 4.8 | 0.00 | 0.00 | 0.00 | 87 | 1018.0 |
| 20260509011540 | 7 | 0.0 | 0.0 | 0.00 | 0.00 | 0.00 | 88 | 1017.9 | |
| 20260509010519 | 7 | 0.0 | 0.0 | 0.00 | 0.00 | 0.00 | 88 | 1017.9 | |
| 20260509005519 | 7 | 0.0 | 0.0 | 0.00 | 0.00 | 0.00 | 87 | 1018.1 | |
| 20260509004544 | 7 | 0.0 | 0.0 | 0.00 | 0.00 | 0.00 | 87 | 1018.0 | |
| 20260509003525 | 7 | 0.0 | 1.6 | 0.00 | 0.00 | 0.00 | 87 | 1018.0 | |
| 20260509002519 | 7 | 0.0 | 3.2 | 0.00 | 0.00 | 0.00 | 86 | 1017.8 | |
| 20260509001519 | 7 | 180 | 1.6 | 3.2 | 0.00 | 0.00 | 0.00 | 85 | 1018.1 |
| 20260509000518 | 8 | 180 | 1.6 | 4.8 | 0.00 | 0.00 | 0.00 | 86 | 1018.1 |
| 20260508235539 | 8 | 0.0 | 1.6 | 0.00 | 0.00 | 0.00 | 86 | 1018.2 | |
| 20260508234519 | 8 | 0.0 | 0.0 | 0.00 | 0.00 | 0.00 | 85 | 1018.2 | |
| 20260508233519 | 8 | 0.0 | 0.0 | 0.00 | 0.00 | 0.00 | 85 | 1018.2 | |
| 20260508232519 | 8 | 0.0 | 3.2 | 0.00 | 0.00 | 0.00 | 85 | 1018.2 | |
| 20260508231519 | 8 | 0.0 | 0.0 | 0.00 | 0.00 | 0.00 | 85 | 1018.1 | |
| 20260508230520 | 8 | 0.0 | 0.0 | 0.00 | 0.00 | 0.00 | 85 | 1018.0 | |
| 20260508225519 | 8 | 180 | 1.6 | 3.2 | 0.00 | 0.00 | 0.00 | 84 | 1017.9 |
| 20260508224519 | 8 | 180 | 1.6 | 3.2 | 0.00 | 0.00 | 0.00 | 84 | 1018.1 |
| 20260508223519 | 9 | 180 | 1.6 | 3.2 | 0.00 | 0.00 | 0.00 | 83 | 1017.9 |
| 20260508222519 | 9 | 0.0 | 0.0 | 0.00 | 0.00 | 0.00 | 83 | 1018.0 | |
| 20260508221519 | 10 | 0.0 | 3.2 | 0.00 | 0.00 | 0.00 | 82 | 1018.1 | |
| 20260508220519 | 10 | 203 | 1.6 | 4.8 | 0.00 | 0.00 | 0.00 | 82 | 1018.2 |
| 20260508215539 | 10 | 0.0 | 1.6 | 0.00 | 0.00 | 0.00 | 81 | 1018.3 | |
| 20260508214519 | 10 | 0.0 | 0.0 | 0.00 | 0.00 | 0.00 | 81 | 1018.2 | |
| 20260508213530 | 10 | 0.0 | 0.0 | 0.00 | 0.00 | 0.00 | 80 | 1018.0 | |
| 20260508212518 | 11 | 203 | 1.6 | 4.8 | 0.00 | 0.00 | 0.00 | 79 | 1018.1 |
| 20260508211518 | 11 | 203 | 1.6 | 3.2 | 0.00 | 0.00 | 0.00 | 79 | 1018.2 |
| 20260508210646 | 11 | 0.0 | 1.6 | 0.00 | 0.00 | 0.00 | 77 | 1018.2 | |
| 20260508205519 | 11 | 0.0 | 1.6 | 0.00 | 0.00 | 0.00 | 76 | 1018.0 | |
| 20260508204524 | 11 | 203 | 1.6 | 3.2 | 0.00 | 0.00 | 0.00 | 76 | 1018.0 |
| 20260508203522 | 12 | 203 | 1.6 | 3.2 | 0.00 | 0.00 | 0.00 | 75 | 1017.9 |
| 20260508202543 | 12 | 203 | 1.6 | 1.6 | 0.00 | 0.00 | 0.00 | 74 | 1017.7 |
| 20260508201528 | 13 | 203 | 1.6 | 3.2 | 0.00 | 0.00 | 0.00 | 72 | 1017.7 |
| 20260508200518 | 13 | 0.0 | 1.6 | 0.00 | 0.00 | 0.00 | 71 | 1017.8 | |
| 20260508195519 | 13 | 180 | 1.6 | 4.8 | 0.00 | 0.00 | 0.00 | 69 | 1017.6 |
| 20260508194519 | 14 | 203 | 1.6 | 3.2 | 0.00 | 0.00 | 0.00 | 68 | 1017.5 |
| 20260508193530 | 15 | 0.0 | 3.2 | 0.00 | 0.00 | 0.00 | 67 | 1017.4 | |
| 20260508192518 | 15 | 203 | 1.6 | 3.2 | 0.00 | 0.00 | 0.00 | 66 | 1017.1 |
| 20260508191519 | 15 | 203 | 3.2 | 8.0 | 0.00 | 0.00 | 0.00 | 65 | 1016.9 |
| 20260508190519 | 15 | 180 | 4.8 | 8.0 | 0.00 | 0.00 | 0.00 | 65 | 1017.1 |
| 20260508185518 | 15 | 180 | 1.6 | 4.8 | 0.00 | 0.00 | 0.00 | 64 | 1016.8 |
| 20260508184527 | 16 | 180 | 4.8 | 9.7 | 0.00 | 0.00 | 0.00 | 64 | 1016.7 |
| 20260508183518 | 16 | 180 | 3.2 | 8.0 | 0.00 | 0.00 | 0.00 | 64 | 1016.8 |
| 20260508182519 | 16 | 180 | 6.4 | 12.9 | 0.00 | 0.00 | 0.00 | 63 | 1016.6 |
| 20260508181519 | 17 | 203 | 6.4 | 12.9 | 0.00 | 0.00 | 0.00 | 61 | 1016.8 |
| 20260508180518 | 17 | 203 | 6.4 | 11.3 | 0.00 | 0.00 | 0.00 | 62 | 1016.7 |
| 20260508175519 | 17 | 203 | 6.4 | 14.5 | 0.00 | 0.00 | 0.00 | 59 | 1016.5 |
| 20260508174518 | 17 | 180 | 4.8 | 8.0 | 0.00 | 0.00 | 0.00 | 57 | 1016.4 |
| 20260508173527 | 17 | 180 | 6.4 | 11.3 | 0.00 | 0.00 | 0.00 | 52 | 1016.3 |
| 20260508172518 | 18 | 203 | 6.4 | 16.1 | 0.00 | 0.00 | 0.00 | 54 | 1016.2 |
| 20260508171518 | 18 | 203 | 8.0 | 14.5 | 0.00 | 0.00 | 0.00 | 55 | 1016.2 |
| 20260508170518 | 18 | 180 | 9.7 | 17.7 | 0.00 | 0.00 | 0.00 | 55 | 1016.1 |
| 20260508165519 | 18 | 158 | 9.7 | 16.1 | 0.00 | 0.00 | 0.00 | 50 | 1016.0 |
| 20260508164518 | 18 | 135 | 8.0 | 16.1 | 0.00 | 0.00 | 0.00 | 49 | 1016.0 |
| 20260508163518 | 18 | 203 | 8.0 | 12.9 | 0.00 | 0.00 | 0.00 | 52 | 1015.7 |
| 20260508162518 | 18 | 180 | 6.4 | 12.9 | 0.00 | 0.00 | 0.00 | 51 | 1015.6 |
| 20260508161518 | 18 | 203 | 6.4 | 11.3 | 0.00 | 0.00 | 0.00 | 48 | 1015.7 |
| 20260508160519 | 19 | 180 | 8.0 | 14.5 | 0.00 | 0.00 | 0.00 | 46 | 1015.8 |
| 20260508155558 | 18 | 203 | 8.0 | 16.1 | 0.00 | 0.00 | 0.00 | 48 | 1015.9 |
| 20260508154517 | 19 | 203 | 9.7 | 17.7 | 0.00 | 0.00 | 0.00 | 50 | 1015.9 |
| 20260508153518 | 19 | 180 | 8.0 | 12.9 | 0.00 | 0.00 | 0.00 | 49 | 1016.1 |
| 20260508152518 | 19 | 135 | 9.7 | 19.3 | 0.00 | 0.00 | 0.00 | 48 | 1016.3 |
| 20260508151518 | 18 | 158 | 8.0 | 16.1 | 0.00 | 0.00 | 0.00 | 50 | 1016.2 |
| 20260508150528 | 18 | 180 | 9.7 | 19.3 | 0.00 | 0.00 | 0.00 | 50 | 1016.3 |
| 20260508145519 | 18 | 203 | 6.4 | 16.1 | 0.00 | 0.00 | 0.00 | 48 | 1016.2 |
| 20260508144518 | 19 | 135 | 8.0 | 16.1 | 0.00 | 0.00 | 0.00 | 49 | 1016.3 |
| 20260508143518 | 19 | 203 | 8.0 | 16.1 | 0.00 | 0.00 | 0.00 | 49 | 1016.1 |
| 20260508142518 | 20 | 203 | 9.7 | 19.3 | 0.00 | 0.00 | 0.00 | 51 | 1016.4 |
| 20260508141518 | 19 | 180 | 9.7 | 19.3 | 0.00 | 0.00 | 0.00 | 52 | 1016.3 |
| 20260508140518 | 20 | 203 | 11.3 | 19.3 | 0.00 | 0.00 | 0.00 | 49 | 1016.3 |
| 20260508135518 | 20 | 180 | 8.0 | 14.5 | 0.00 | 0.00 | 0.00 | 50 | 1016.3 |
| 20260508134518 | 20 | 203 | 9.7 | 16.1 | 0.00 | 0.00 | 0.00 | 48 | 1016.2 |
| 20260508133523 | 19 | 203 | 9.7 | 19.3 | 0.00 | 0.00 | 0.00 | 49 | 1016.3 |
| 20260508132520 | 19 | 180 | 9.7 | 16.1 | 0.00 | 0.00 | 0.00 | 49 | 1016.3 |
| 20260508131543 | 19 | 203 | 9.7 | 17.7 | 0.00 | 0.00 | 0.00 | 51 | 1016.3 |
| 20260508130520 | 19 | 180 | 6.4 | 17.7 | 0.00 | 0.00 | 0.00 | 50 | 1016.4 |
| 20260508125521 | 19 | 180 | 8.0 | 17.7 | 0.00 | 0.00 | 0.00 | 51 | 1016.3 |
| 20260508124543 | 20 | 203 | 8.0 | 17.7 | 0.00 | 0.00 | 0.00 | 50 | 1016.2 |
| 20260508123520 | 20 | 203 | 9.7 | 19.3 | 0.00 | 0.00 | 0.00 | 49 | 1016.4 |
| 20260508122600 | 18 | 203 | 9.7 | 17.7 | 0.00 | 0.00 | 0.00 | 53 | 1016.3 |
| 20260508121520 | 18 | 180 | 12.9 | 24.1 | 0.00 | 0.00 | 0.00 | 53 | 1016.4 |
| 20260508120521 | 18 | 203 | 11.3 | 19.3 | 0.00 | 0.00 | 0.00 | 53 | 1016.5 |
| 20260508115520 | 18 | 203 | 11.3 | 19.3 | 0.00 | 0.00 | 0.00 | 54 | 1016.4 |
| 20260508114520 | 18 | 203 | 9.7 | 17.7 | 0.00 | 0.00 | 0.00 | 53 | 1016.4 |
| 20260508113520 | 18 | 203 | 8.0 | 17.7 | 0.00 | 0.00 | 0.00 | 54 | 1016.3 |
| 20260508112545 | 18 | 180 | 6.4 | 17.7 | 0.00 | 0.00 | 0.00 | 50 | 1016.5 |
| 20260508111521 | 18 | 113 | 9.7 | 17.7 | 0.00 | 0.00 | 0.00 | 53 | 1016.3 |
| 20260508110525 | 18 | 135 | 9.7 | 20.9 | 0.00 | 0.00 | 0.00 | 56 | 1016.4 |